| time (UTC) | temp C | wind direction | speed KPH | gust KPH | rain 1hr cm | rain 24hr cm | rain mn cm | humidity % | barometer mb |
| 20260506162012 | 17 | 158 | 0.0 | 0.0 | 0.00 | 0.00 | 0.00 | 82 | 1008.9 |
| 20260506161523 | 17 | 91 | 0.0 | 0.0 | 0.00 | 0.00 | 0.00 | 83 | 1009.0 |
| 20260506161037 | 17 | 22 | 0.0 | 0.0 | 0.00 | 0.00 | 0.00 | 82 | 1009.1 |
| 20260506160548 | 17 | 66 | 0.0 | 0.0 | 0.00 | 0.00 | 0.00 | 82 | 1009.1 |
| 20260506160009 | 17 | 59 | 0.0 | 0.0 | 0.00 | 0.00 | 0.00 | 82 | 1009.2 |
| 20260506155525 | 17 | 63 | 0.0 | 0.0 | 0.00 | 0.00 | 0.00 | 83 | 1009.3 |
| 20260506155037 | 17 | 100 | 0.0 | 0.0 | 0.00 | 0.00 | 0.00 | 82 | 1009.4 |
| 20260506154555 | 17 | 49 | 0.0 | 0.0 | 0.00 | 0.00 | 0.00 | 83 | 1009.5 |
| 20260506154003 | 17 | 49 | 0.0 | 0.0 | 0.00 | 0.00 | 0.00 | 83 | 1009.5 |
| 20260506153520 | 17 | 280 | 0.0 | 0.0 | 0.00 | 0.00 | 0.00 | 82 | 1009.4 |
| 20260506153030 | 17 | 8 | 0.0 | 0.0 | 0.00 | 0.00 | 0.00 | 83 | 1009.4 |
| 20260506152547 | 17 | 115 | 0.0 | 0.0 | 0.00 | 0.00 | 0.00 | 83 | 1009.7 |
| 20260506152003 | 17 | 40 | 0.0 | 0.0 | 0.00 | 0.00 | 0.00 | 82 | 1009.7 |
| 20260506151520 | 17 | 55 | 0.0 | 0.0 | 0.00 | 0.00 | 0.00 | 82 | 1009.5 |
| 20260506151031 | 17 | 110 | 0.0 | 0.0 | 0.00 | 0.00 | 0.00 | 81 | 1009.4 |
| 20260506150544 | 17 | 186 | 0.0 | 0.0 | 0.00 | 0.00 | 0.00 | 81 | 1009.4 |
| 20260506150100 | 17 | 42 | 0.0 | 0.0 | 0.00 | 0.00 | 0.00 | 81 | 1009.3 |
| 20260506145512 | 17 | 120 | 0.0 | 0.0 | 0.00 | 0.00 | 0.00 | 81 | 1009.3 |
| 20260506145023 | 17 | 69 | 0.0 | 0.0 | 0.00 | 0.00 | 0.00 | 80 | 1009.3 |
| 20260506144549 | 18 | 324 | 0.0 | 0.0 | 0.00 | 0.00 | 0.00 | 79 | 1009.2 |
| 20260506144053 | 18 | 73 | 0.0 | 0.0 | 0.00 | 0.00 | 0.00 | 80 | 1009.3 |
| 20260506143511 | 18 | 11 | 0.0 | 0.0 | 0.00 | 0.00 | 0.00 | 79 | 1009.2 |
| 20260506143026 | 18 | 51 | 0.0 | 0.0 | 0.00 | 0.00 | 0.00 | 80 | 1009.3 |
| 20260506142539 | 18 | 209 | 0.0 | 0.0 | 0.00 | 0.00 | 0.00 | 80 | 1009.5 |
| 20260506142051 | 18 | 29 | 0.0 | 0.0 | 0.00 | 0.00 | 0.00 | 79 | 1009.5 |
| 20260506141507 | 18 | 234 | 0.0 | 0.0 | 0.00 | 0.00 | 0.00 | 80 | 1009.6 |
| 20260506141023 | 18 | 45 | 0.0 | 0.0 | 0.00 | 0.00 | 0.00 | 80 | 1009.5 |
| 20260506140541 | 18 | 213 | 0.0 | 0.0 | 0.00 | 0.00 | 0.00 | 80 | 1009.4 |
| 20260506140052 | 17 | 172 | 0.0 | 0.0 | 0.00 | 0.00 | 0.00 | 82 | 1009.4 |
| 20260506135506 | 17 | 70 | 0.0 | 0.0 | 0.00 | 0.00 | 0.00 | 82 | 1009.5 |
| 20260506135023 | 17 | 63 | 0.0 | 0.0 | 0.00 | 0.00 | 0.00 | 82 | 1009.6 |
| 20260506134537 | 17 | 206 | 0.0 | 0.0 | 0.00 | 0.00 | 0.00 | 83 | 1009.8 |
| 20260506134057 | 17 | 41 | 0.0 | 0.0 | 0.00 | 0.00 | 0.00 | 84 | 1009.7 |
| 20260506133511 | 17 | 44 | 0.0 | 0.0 | 0.00 | 0.00 | 0.00 | 83 | 1009.6 |
| 20260506133026 | 17 | 27 | 0.0 | 0.0 | 0.00 | 0.00 | 0.00 | 84 | 1009.5 |
| 20260506132538 | 17 | 58 | 0.0 | 0.0 | 0.00 | 0.00 | 0.00 | 85 | 1009.4 |
| 20260506132052 | 16 | 186 | 0.0 | 0.0 | 0.00 | 0.00 | 0.00 | 85 | 1009.5 |
| 20260506131506 | 16 | 158 | 0.0 | 0.0 | 0.00 | 0.00 | 0.00 | 85 | 1009.3 |
| 20260506131022 | 16 | 11 | 0.0 | 0.0 | 0.00 | 0.00 | 0.00 | 85 | 1009.4 |
| 20260506130534 | 16 | 266 | 0.0 | 0.0 | 0.00 | 0.00 | 0.00 | 85 | 1009.3 |
| 20260506130048 | 16 | 76 | 0.0 | 0.0 | 0.00 | 0.00 | 0.00 | 85 | 1009.4 |
| 20260506125559 | 16 | 99 | 0.0 | 0.0 | 0.00 | 0.00 | 0.00 | 86 | 1009.4 |
| 20260506125501 | 16 | 63 | 0.0 | 0.0 | 0.00 | 0.00 | 0.00 | 86 | 1009.4 |
| 20260506125021 | 16 | 49 | 0.0 | 0.0 | 0.00 | 0.00 | 0.00 | 86 | 1009.5 |
| 20260506124531 | 16 | 99 | 0.0 | 0.0 | 0.00 | 0.00 | 0.00 | 87 | 1009.5 |
| 20260506124051 | 16 | 77 | 0.0 | 0.0 | 0.00 | 0.00 | 0.00 | 87 | 1009.6 |
| 20260506123508 | 16 | 51 | 0.0 | 0.0 | 0.00 | 0.00 | 0.00 | 88 | 1009.7 |
| 20260506123018 | 16 | 40 | 0.0 | 0.0 | 0.00 | 0.00 | 0.00 | 88 | 1009.8 |
| 20260506122531 | 16 | 63 | 0.0 | 0.0 | 0.00 | 0.00 | 0.00 | 88 | 1009.9 |
| 20260506122043 | 16 | 50 | 0.0 | 0.0 | 0.00 | 0.00 | 0.00 | 89 | 1010.0 |
| 20260506121558 | 15 | 190 | 0.0 | 0.0 | 0.00 | 0.00 | 0.00 | 89 | 1010.2 |
| 20260506121013 | 15 | 46 | 0.0 | 0.0 | 0.00 | 0.00 | 0.00 | 90 | 1010.0 |
| 20260506120532 | 15 | 18 | 0.0 | 0.0 | 0.00 | 0.00 | 0.00 | 90 | 1010.1 |
| 20260506120043 | 15 | 20 | 0.0 | 0.0 | 0.00 | 0.03 | 0.00 | 90 | 1010.0 |
| 20260506115504 | 15 | 47 | 0.0 | 0.0 | 0.00 | 0.03 | 0.00 | 90 | 1009.9 |
| 20260506115017 | 15 | 4 | 0.0 | 0.0 | 0.00 | 0.03 | 0.00 | 91 | 1009.8 |
| 20260506114536 | 15 | 62 | 0.0 | 0.0 | 0.00 | 0.03 | 0.00 | 91 | 1009.8 |
| 20260506114047 | 15 | 46 | 0.0 | 0.0 | 0.00 | 0.03 | 0.00 | 91 | 1009.9 |
| 20260506113506 | 14 | 71 | 0.0 | 0.0 | 0.00 | 0.03 | 0.00 | 91 | 1009.8 |
| 20260506113032 | 14 | 41 | 0.0 | 0.0 | 0.00 | 0.03 | 0.00 | 91 | 1009.7 |
| 20260506112534 | 14 | 56 | 0.0 | 0.0 | 0.00 | 0.03 | 0.00 | 91 | 1009.9 |
| 20260506112045 | 14 | 53 | 0.0 | 0.0 | 0.00 | 0.03 | 0.00 | 92 | 1009.9 |
| 20260506111559 | 14 | 108 | 0.0 | 0.0 | 0.00 | 0.03 | 0.00 | 92 | 1009.9 |
| 20260506111501 | 14 | 62 | 0.0 | 0.0 | 0.00 | 0.03 | 0.00 | 92 | 1009.9 |
| 20260506111013 | 14 | 72 | 0.0 | 0.0 | 0.00 | 0.03 | 0.00 | 92 | 1009.9 |
| 20260506110527 | 13 | 183 | 0.0 | 0.0 | 0.00 | 0.03 | 0.00 | 92 | 1009.9 |
| 20260506110038 | 13 | 50 | 0.0 | 0.0 | 0.00 | 0.03 | 0.00 | 92 | 1010.0 |
| 20260506105554 | 13 | 74 | 0.0 | 0.0 | 0.00 | 0.03 | 0.00 | 92 | 1010.1 |
| 20260506105051 | 13 | 105 | 0.0 | 0.0 | 0.00 | 0.03 | 0.00 | 93 | 1010.0 |
| 20260506104503 | 13 | 4 | 0.0 | 0.0 | 0.00 | 0.03 | 0.00 | 93 | 1010.0 |
| 20260506104018 | 13 | 28 | 0.0 | 0.0 | 0.00 | 0.03 | 0.00 | 93 | 1009.9 |
| 20260506103531 | 13 | 18 | 0.0 | 0.0 | 0.00 | 0.03 | 0.00 | 93 | 1009.9 |
| 20260506103054 | 13 | 82 | 0.0 | 0.0 | 0.00 | 0.03 | 0.00 | 93 | 1009.8 |
| 20260506102559 | 13 | 38 | 0.0 | 0.0 | 0.00 | 0.03 | 0.00 | 93 | 1009.9 |
| 20260506102502 | 13 | 126 | 0.0 | 0.0 | 0.00 | 0.03 | 0.00 | 93 | 1009.9 |
| 20260506102018 | 13 | 72 | 0.0 | 0.0 | 0.00 | 0.03 | 0.00 | 93 | 1009.9 |
| 20260506101527 | 13 | 52 | 0.0 | 0.0 | 0.00 | 0.03 | 0.00 | 93 | 1009.9 |
| 20260506101041 | 13 | 52 | 0.0 | 0.0 | 0.00 | 0.03 | 0.00 | 93 | 1009.9 |
| 20260506100553 | 13 | 71 | 0.0 | 0.0 | 0.00 | 0.03 | 0.00 | 93 | 1009.9 |
| 20260506100010 | 13 | 74 | 0.0 | 0.0 | 0.00 | 0.03 | 0.00 | 93 | 1009.8 |
| 20260506095519 | 13 | 45 | 0.0 | 0.0 | 0.00 | 0.03 | 0.00 | 92 | 1009.8 |
| 20260506095036 | 13 | 84 | 0.0 | 0.0 | 0.00 | 0.03 | 0.00 | 92 | 1009.8 |
| 20260506094548 | 13 | 31 | 0.0 | 0.0 | 0.00 | 0.03 | 0.00 | 92 | 1009.9 |
| 20260506094004 | 13 | 52 | 0.0 | 0.0 | 0.00 | 0.03 | 0.00 | 92 | 1009.7 |
| 20260506093514 | 13 | 52 | 0.0 | 0.0 | 0.00 | 0.03 | 0.00 | 92 | 1009.7 |
| 20260506093027 | 13 | 52 | 0.0 | 0.0 | 0.00 | 0.03 | 0.00 | 92 | 1009.7 |
| 20260506092538 | 13 | 42 | 0.0 | 0.0 | 0.00 | 0.03 | 0.00 | 92 | 1009.7 |
| 20260506092051 | 13 | 42 | 0.0 | 0.0 | 0.00 | 0.03 | 0.00 | 92 | 1009.8 |
| 20260506091508 | 13 | 41 | 0.0 | 0.0 | 0.00 | 0.03 | 0.00 | 92 | 1009.8 |
| 20260506091021 | 13 | 48 | 0.0 | 0.0 | 0.00 | 0.03 | 0.00 | 92 | 1009.8 |
| 20260506090537 | 13 | 62 | 0.0 | 0.0 | 0.00 | 0.03 | 0.00 | 92 | 1010.0 |
| 20260506090056 | 13 | 60 | 0.0 | 0.0 | 0.00 | 0.03 | 0.00 | 91 | 1009.8 |
| 20260506085559 | 13 | 54 | 0.0 | 0.0 | 0.00 | 0.03 | 0.00 | 91 | 1009.9 |
| 20260506085505 | 13 | 55 | 0.0 | 0.0 | 0.00 | 0.03 | 0.00 | 91 | 1009.9 |
| 20260506085015 | 13 | 49 | 0.0 | 0.0 | 0.00 | 0.03 | 0.00 | 91 | 1009.9 |
| 20260506084531 | 13 | 34 | 0.0 | 0.0 | 0.00 | 0.03 | 0.00 | 91 | 1010.0 |
| 20260506084041 | 13 | 52 | 0.0 | 0.0 | 0.00 | 0.03 | 0.00 | 91 | 1010.0 |
| 20260506083556 | 13 | 335 | 0.0 | 0.0 | 0.00 | 0.03 | 0.00 | 91 | 1010.0 |
| 20260506083007 | 13 | 60 | 0.0 | 0.0 | 0.00 | 0.03 | 0.00 | 91 | 1010.0 |
| 20260506082521 | 13 | 60 | 0.0 | 0.0 | 0.00 | 0.03 | 0.00 | 91 | 1010.0 |
| 20260506082033 | 13 | 102 | 0.0 | 0.0 | 0.00 | 0.03 | 0.00 | 91 | 1010.1 |
| 20260506081547 | 13 | 49 | 0.0 | 0.0 | 0.00 | 0.03 | 0.00 | 90 | 1010.0 |
| 20260506081057 | 13 | 62 | 0.0 | 0.0 | 0.00 | 0.03 | 0.00 | 90 | 1009.9 |
| 20260506080513 | 13 | 91 | 0.0 | 0.0 | 0.00 | 0.03 | 0.00 | 90 | 1009.8 |
| 20260506073041 | 13 | 67 | 0.0 | 0.0 | 0.00 | 0.03 | 0.00 | 90 | 1010.2 |
| 20260506072555 | 13 | 74 | 0.0 | 0.0 | 0.00 | 0.03 | 0.00 | 90 | 1010.2 |
| 20260506072010 | 13 | 48 | 0.0 | 0.0 | 0.00 | 0.03 | 0.00 | 89 | 1010.1 |
| 20260506071524 | 13 | 185 | 0.0 | 0.0 | 0.00 | 0.03 | 0.00 | 89 | 1010.2 |
| 20260506071035 | 14 | 32 | 0.0 | 0.0 | 0.00 | 0.03 | 0.00 | 89 | 1010.1 |
| 20260506070549 | 14 | 45 | 0.0 | 0.0 | 0.00 | 0.03 | 0.00 | 89 | 1010.2 |
| 20260506062051 | 15 | 67 | 0.0 | 0.0 | 0.00 | 0.03 | 0.00 | 85 | 1010.0 |
| 20260506061504 | 15 | 60 | 0.0 | 0.0 | 0.00 | 0.03 | 0.00 | 85 | 1010.0 |
| 20260506061016 | 15 | 62 | 0.0 | 0.0 | 0.00 | 0.03 | 0.00 | 84 | 1010.0 |
| 20260506060527 | 15 | 51 | 0.0 | 0.0 | 0.00 | 0.03 | 0.00 | 84 | 1010.0 |
| 20260506051053 | 16 | 63 | 0.0 | 0.0 | 0.00 | 0.03 | 0.00 | 83 | 1010.4 |
| 20260506050511 | 16 | 64 | 0.0 | 0.0 | 0.00 | 0.03 | 0.00 | 83 | 1010.4 |
| 20260506045047 | 16 | 63 | 0.0 | 0.0 | 0.00 | 0.03 | 0.00 | 81 | 1010.5 |
| 20260506044503 | 16 | 132 | 0.0 | 0.0 | 0.00 | 0.03 | 0.00 | 81 | 1010.5 |
| 20260506044014 | 16 | 50 | 0.0 | 0.0 | 0.00 | 0.03 | 0.00 | 80 | 1010.5 |
| 20260506043532 | 16 | 58 | 0.0 | 0.0 | 0.00 | 0.03 | 0.00 | 80 | 1010.5 |
| 20260506043037 | 16 | 44 | 0.0 | 0.0 | 0.00 | 0.03 | 0.00 | 80 | 1010.5 |
| 20260506042553 | 16 | 70 | 0.0 | 0.0 | 0.00 | 0.03 | 0.00 | 79 | 1010.5 |
| 20260506042004 | 16 | 35 | 0.0 | 0.0 | 0.00 | 0.03 | 0.00 | 79 | 1010.5 |
| 20260506041519 | 16 | 75 | 0.0 | 0.0 | 0.00 | 0.03 | 0.00 | 79 | 1010.5 |
| 20260506041032 | 16 | 63 | 0.0 | 0.0 | 0.00 | 0.03 | 0.00 | 78 | 1010.4 |
| 20260506040545 | 16 | 68 | 0.0 | 0.0 | 0.00 | 0.03 | 0.00 | 78 | 1010.5 |
| 20260506040056 | 16 | 67 | 0.0 | 0.0 | 0.00 | 0.03 | 0.00 | 78 | 1010.5 |
| 20260506035514 | 16 | 76 | 0.0 | 0.0 | 0.00 | 0.03 | 0.03 | 78 | 1010.5 |
| 20260506035021 | 16 | 40 | 0.0 | 0.0 | 0.00 | 0.03 | 0.03 | 77 | 1010.5 |
| 20260506034552 | 16 | 59 | 0.0 | 0.0 | 0.00 | 0.03 | 0.03 | 77 | 1010.4 |
| 20260506034049 | 16 | 62 | 0.0 | 0.0 | 0.00 | 0.03 | 0.03 | 77 | 1010.5 |
| 20260506033503 | 16 | 188 | 0.0 | 0.0 | 0.00 | 0.03 | 0.03 | 77 | 1010.5 |
| 20260506033016 | 16 | 66 | 0.0 | 0.0 | 0.00 | 0.03 | 0.03 | 77 | 1010.5 |
| 20260506032531 | 16 | 52 | 0.0 | 0.0 | 0.00 | 0.03 | 0.03 | 77 | 1010.5 |
| 20260506032040 | 16 | 96 | 0.0 | 0.0 | 0.00 | 0.03 | 0.03 | 76 | 1010.4 |
| 20260506031601 | 16 | 82 | 0.0 | 0.0 | 0.00 | 0.03 | 0.03 | 76 | 1010.4 |
| 20260506031006 | 16 | 79 | 0.0 | 0.0 | 0.00 | 0.03 | 0.03 | 76 | 1010.4 |
| 20260506030519 | 17 | 73 | 0.0 | 0.0 | 0.00 | 0.03 | 0.03 | 76 | 1010.5 |
| 20260506030039 | 17 | 50 | 0.0 | 0.0 | 0.00 | 0.03 | 0.03 | 75 | 1010.5 |
| 20260506025549 | 17 | 105 | 0.0 | 0.0 | 0.00 | 0.03 | 0.03 | 75 | 1010.5 |
| 20260506025100 | 17 | 59 | 0.0 | 0.0 | 0.00 | 0.03 | 0.03 | 75 | 1010.5 |
| 20260506024535 | 17 | 89 | 0.0 | 0.0 | 0.00 | 0.03 | 0.03 | 74 | 1010.6 |
| 20260506024027 | 17 | 74 | 0.0 | 0.0 | 0.00 | 0.03 | 0.03 | 74 | 1010.5 |
| 20260506023543 | 17 | 87 | 0.0 | 0.0 | 0.00 | 0.03 | 0.03 | 74 | 1010.6 |
| 20260506023054 | 17 | 45 | 0.0 | 0.0 | 0.00 | 0.03 | 0.03 | 74 | 1010.4 |
| 20260506022513 | 17 | 74 | 0.0 | 0.0 | 0.00 | 0.03 | 0.03 | 74 | 1010.4 |
| 20260506022024 | 17 | 83 | 0.0 | 0.0 | 0.00 | 0.03 | 0.03 | 74 | 1010.5 |
| 20260506021538 | 17 | 59 | 0.0 | 0.0 | 0.00 | 0.03 | 0.03 | 74 | 1010.5 |
| 20260506021047 | 17 | 67 | 0.0 | 0.0 | 0.00 | 0.03 | 0.03 | 74 | 1010.5 |
| 20260506020503 | 17 | 48 | 0.0 | 0.0 | 0.00 | 0.03 | 0.03 | 74 | 1010.5 |
| 20260506020018 | 17 | 60 | 0.0 | 0.0 | 0.00 | 0.03 | 0.03 | 74 | 1010.4 |
| 20260506015528 | 17 | 53 | 0.0 | 0.0 | 0.00 | 0.03 | 0.03 | 74 | 1010.3 |
| 20260506015043 | 17 | 181 | 0.0 | 0.0 | 0.00 | 0.03 | 0.03 | 73 | 1010.3 |
| 20260506014550 | 17 | 63 | 0.0 | 0.0 | 0.00 | 0.03 | 0.03 | 73 | 1010.3 |
| 20260506014005 | 17 | 58 | 0.0 | 0.0 | 0.00 | 0.03 | 0.03 | 73 | 1010.1 |
| 20260506013517 | 17 | 49 | 0.0 | 0.0 | 0.00 | 0.03 | 0.03 | 73 | 1010.1 |
| 20260506013040 | 17 | 53 | 0.0 | 0.0 | 0.00 | 0.03 | 0.03 | 73 | 1010.1 |
| 20260506012546 | 17 | 53 | 0.0 | 0.0 | 0.00 | 0.03 | 0.03 | 72 | 1010.0 |
| 20260506012059 | 17 | 53 | 0.0 | 0.0 | 0.00 | 0.03 | 0.03 | 72 | 1010.0 |
| 20260506012004 | 17 | 82 | 0.0 | 0.0 | 0.00 | 0.03 | 0.03 | 72 | 1010.0 |
| 20260506011514 | 17 | 101 | 0.0 | 0.0 | 0.00 | 0.03 | 0.03 | 72 | 1009.9 |
| 20260506011029 | 17 | 70 | 0.0 | 0.0 | 0.00 | 0.03 | 0.03 | 71 | 1009.8 |
| 20260506010540 | 17 | 63 | 0.0 | 0.0 | 0.00 | 0.03 | 0.03 | 71 | 1009.8 |
| 20260506010057 | 17 | 79 | 0.0 | 0.0 | 0.00 | 0.03 | 0.03 | 71 | 1009.7 |
| 20260506005506 | 17 | 69 | 0.0 | 0.0 | 0.00 | 0.15 | 0.03 | 71 | 1009.7 |
| 20260506005019 | 17 | 66 | 0.0 | 0.0 | 0.00 | 0.15 | 0.03 | 70 | 1009.6 |
| 20260506004532 | 17 | 67 | 0.0 | 0.0 | 0.00 | 0.15 | 0.03 | 70 | 1009.6 |
| 20260506004044 | 17 | 66 | 0.0 | 0.0 | 0.00 | 0.15 | 0.03 | 69 | 1009.5 |
| 20260506003554 | 18 | 60 | 0.0 | 0.0 | 0.00 | 0.15 | 0.03 | 69 | 1009.4 |
| 20260506003010 | 18 | 55 | 0.0 | 0.0 | 0.00 | 0.15 | 0.03 | 68 | 1009.3 |
| 20260506002521 | 18 | 65 | 0.0 | 0.0 | 0.00 | 0.15 | 0.03 | 67 | 1009.2 |
| 20260506002037 | 18 | 87 | 0.0 | 0.0 | 0.00 | 0.15 | 0.03 | 67 | 1009.2 |
| 20260506001547 | 18 | 32 | 0.0 | 0.0 | 0.00 | 0.15 | 0.03 | 67 | 1009.2 |
| 20260506001100 | 18 | 55 | 0.0 | 0.0 | 0.00 | 0.15 | 0.03 | 67 | 1009.1 |
| 20260506001002 | 18 | 53 | 0.0 | 0.0 | 0.00 | 0.15 | 0.03 | 66 | 1009.0 |
| 20260506000519 | 18 | 51 | 0.0 | 0.0 | 0.00 | 0.15 | 0.03 | 66 | 1009.0 |
| 20260506000026 | 18 | 75 | 0.0 | 0.0 | 0.00 | 0.15 | 0.03 | 65 | 1008.9 |
| 20260505235542 | 18 | 56 | 0.0 | 0.0 | 0.00 | 0.15 | 0.03 | 65 | 1008.9 |
| 20260505235052 | 18 | 53 | 0.0 | 0.0 | 0.00 | 0.15 | 0.03 | 65 | 1008.8 |
| 20260505234512 | 19 | 58 | 0.0 | 0.0 | 0.00 | 0.15 | 0.03 | 64 | 1008.7 |
| 20260505234021 | 19 | 65 | 0.0 | 0.0 | 0.00 | 0.15 | 0.03 | 64 | 1008.7 |
| 20260505233537 | 19 | 71 | 0.0 | 0.0 | 0.00 | 0.15 | 0.03 | 64 | 1008.6 |
| 20260505233050 | 19 | 41 | 0.0 | 0.0 | 0.00 | 0.15 | 0.03 | 63 | 1008.7 |
| 20260505232505 | 20 | 37 | 0.0 | 0.0 | 0.00 | 0.15 | 0.03 | 63 | 1008.6 |
| 20260505232015 | 20 | 73 | 0.0 | 0.0 | 0.00 | 0.15 | 0.03 | 63 | 1008.5 |
| 20260505231532 | 20 | 69 | 0.0 | 0.0 | 0.00 | 0.15 | 0.03 | 62 | 1008.4 |
| 20260505231043 | 20 | 185 | 0.0 | 0.0 | 0.00 | 0.15 | 0.03 | 62 | 1008.4 |
| 20260505230556 | 20 | 153 | 0.0 | 0.0 | 0.00 | 0.15 | 0.03 | 62 | 1008.3 |
| 20260505230020 | 21 | 83 | 0.0 | 0.0 | 0.00 | 0.15 | 0.03 | 62 | 1008.2 |
| 20260505225524 | 21 | 41 | 0.0 | 0.0 | 0.00 | 0.15 | 0.03 | 61 | 1008.1 |
| 20260505225038 | 21 | 190 | 0.0 | 0.0 | 0.00 | 0.15 | 0.03 | 61 | 1008.1 |
| 20260505224550 | 21 | 192 | 0.0 | 0.0 | 0.00 | 0.15 | 0.03 | 61 | 1008.1 |
| 20260505224100 | 21 | 117 | 0.0 | 0.0 | 0.00 | 0.15 | 0.03 | 61 | 1008.0 |
| 20260505224004 | 21 | 107 | 0.0 | 4.8 | 0.00 | 0.15 | 0.03 | 61 | 1007.9 |
| 20260505223509 | 21 | 60 | 0.0 | 4.8 | 0.00 | 0.15 | 0.03 | 61 | 1008.1 |
| 20260505223019 | 21 | 193 | 0.0 | 0.0 | 0.00 | 0.15 | 0.03 | 60 | 1008.3 |
| 20260505222534 | 21 | 107 | 0.0 | 0.0 | 0.00 | 0.15 | 0.03 | 60 | 1008.3 |
| 20260505222044 | 21 | 183 | 0.0 | 0.0 | 0.00 | 0.15 | 0.03 | 61 | 1008.3 |
| 20260505221504 | 21 | 177 | 0.0 | 0.0 | 0.00 | 0.15 | 0.03 | 60 | 1008.4 |
| 20260505221023 | 22 | 64 | 0.0 | 0.0 | 0.00 | 0.15 | 0.03 | 60 | 1008.4 |
| 20260505220531 | 22 | 234 | 0.0 | 4.8 | 0.00 | 0.15 | 0.03 | 60 | 1008.2 |
| 20260505220046 | 22 | 206 | 0.0 | 4.8 | 0.00 | 0.15 | 0.03 | 60 | 1008.2 |
| 20260505215556 | 22 | 170 | 0.0 | 3.2 | 0.00 | 0.15 | 0.03 | 60 | 1008.3 |
| 20260505215012 | 22 | 67 | 0.0 | 4.8 | 0.00 | 0.15 | 0.03 | 60 | 1008.1 |
| 20260505214524 | 22 | 171 | 0.0 | 8.0 | 0.00 | 0.15 | 0.03 | 59 | 1008.1 |
| 20260505214036 | 22 | 228 | 0.0 | 8.0 | 0.00 | 0.15 | 0.03 | 60 | 1008.1 |
| 20260505213548 | 22 | 185 | 0.0 | 4.8 | 0.00 | 0.15 | 0.03 | 59 | 1008.1 |
| 20260505213004 | 22 | 29 | 0.0 | 4.8 | 0.00 | 0.15 | 0.03 | 59 | 1008.0 |
| 20260505212519 | 22 | 46 | 0.0 | 4.8 | 0.00 | 0.15 | 0.03 | 58 | 1008.0 |
| 20260505212030 | 23 | 63 | 0.0 | 3.2 | 0.00 | 0.15 | 0.03 | 58 | 1008.0 |
| 20260505211542 | 23 | 202 | 0.0 | 3.2 | 0.00 | 0.15 | 0.03 | 58 | 1007.9 |
| 20260505211056 | 23 | 65 | 0.0 | 3.2 | 0.00 | 0.15 | 0.03 | 58 | 1007.8 |
| 20260505210513 | 23 | 69 | 0.0 | 3.2 | 0.00 | 0.15 | 0.03 | 58 | 1007.8 |
| 20260505210026 | 23 | 41 | 0.0 | 1.6 | 0.00 | 0.15 | 0.03 | 58 | 1007.9 |
| 20260505205536 | 23 | 46 | 0.0 | 4.8 | 0.00 | 0.15 | 0.03 | 58 | 1008.0 |
| 20260505205050 | 23 | 154 | 0.0 | 3.2 | 0.00 | 0.15 | 0.03 | 59 | 1008.0 |
| 20260505204608 | 23 | 308 | 0.0 | 6.4 | 0.00 | 0.15 | 0.03 | 59 | 1008.0 |
| 20260505204502 | 22 | 271 | 0.0 | 6.4 | 0.00 | 0.15 | 0.03 | 59 | 1007.9 |
| 20260505204020 | 23 | 59 | 1.6 | 9.7 | 0.00 | 0.15 | 0.03 | 58 | 1008.0 |
| 20260505203527 | 23 | 33 | 1.6 | 9.7 | 0.00 | 0.15 | 0.03 | 57 | 1008.0 |
| 20260505203047 | 23 | 257 | 0.0 | 3.2 | 0.00 | 0.15 | 0.03 | 58 | 1008.0 |
| 20260505202552 | 23 | 314 | 0.0 | 3.2 | 0.00 | 0.15 | 0.03 | 59 | 1008.0 |
| 20260505202008 | 23 | 107 | 0.0 | 6.4 | 0.00 | 0.15 | 0.03 | 58 | 1008.1 |
| 20260505201522 | 23 | 57 | 0.0 | 6.4 | 0.00 | 0.15 | 0.03 | 58 | 1008.1 |
| 20260505201031 | 23 | 39 | 0.0 | 6.4 | 0.00 | 0.15 | 0.03 | 58 | 1008.2 |
| 20260505200547 | 23 | 79 | 0.0 | 6.4 | 0.00 | 0.15 | 0.03 | 59 | 1008.1 |
| 20260505200059 | 23 | 210 | 1.6 | 6.4 | 0.00 | 0.15 | 0.03 | 58 | 1008.1 |
| 20260505195512 | 23 | 105 | 0.0 | 6.4 | 0.00 | 0.15 | 0.03 | 58 | 1008.3 |
| 20260505195024 | 23 | 56 | 0.0 | 8.0 | 0.00 | 0.15 | 0.03 | 58 | 1008.2 |
| 20260505194543 | 23 | 330 | 0.0 | 14.5 | 0.00 | 0.15 | 0.03 | 58 | 1008.3 |
| 20260505194055 | 23 | 190 | 0.0 | 6.4 | 0.00 | 0.15 | 0.03 | 57 | 1008.3 |
| 20260505193509 | 23 | 235 | 0.0 | 6.4 | 0.00 | 0.15 | 0.03 | 56 | 1008.2 |
| 20260505193018 | 23 | 206 | 0.0 | 6.4 | 0.00 | 0.15 | 0.03 | 57 | 1008.3 |
| 20260505192534 | 24 | 85 | 1.6 | 11.3 | 0.00 | 0.15 | 0.03 | 56 | 1008.4 |
| 20260505192043 | 24 | 49 | 0.0 | 4.8 | 0.00 | 0.15 | 0.03 | 58 | 1008.5 |
| 20260505191504 | 24 | 92 | 0.0 | 4.8 | 0.00 | 0.15 | 0.03 | 57 | 1008.6 |
| 20260505191019 | 24 | 281 | 0.0 | 4.8 | 0.00 | 0.15 | 0.03 | 57 | 1008.7 |
| 20260505190535 | 24 | 224 | 0.0 | 4.8 | 0.00 | 0.15 | 0.03 | 57 | 1008.7 |
| 20260505190045 | 24 | 349 | 0.0 | 6.4 | 0.00 | 0.15 | 0.03 | 57 | 1008.8 |
| 20260505185601 | 24 | 248 | 0.0 | 6.4 | 0.00 | 0.15 | 0.03 | 57 | 1008.9 |
| 20260505185014 | 24 | 326 | 0.0 | 8.0 | 0.00 | 0.15 | 0.03 | 56 | 1008.9 |
| 20260505184530 | 24 | 301 | 0.0 | 9.7 | 0.00 | 0.15 | 0.03 | 56 | 1008.9 |
| 20260505184042 | 24 | 202 | 0.0 | 9.7 | 0.00 | 0.15 | 0.03 | 56 | 1009.0 |
| 20260505183559 | 24 | 183 | 1.6 | 9.7 | 0.00 | 0.15 | 0.03 | 54 | 1009.1 |
| 20260505183504 | 24 | 97 | 0.0 | 9.7 | 0.00 | 0.15 | 0.03 | 55 | 1009.0 |
| 20260505183020 | 24 | 277 | 0.0 | 14.5 | 0.00 | 0.15 | 0.03 | 55 | 1009.0 |
| 20260505182527 | 24 | 178 | 3.2 | 14.5 | 0.00 | 0.15 | 0.03 | 54 | 1008.9 |
| 20260505182044 | 24 | 51 | 1.6 | 11.3 | 0.00 | 0.15 | 0.03 | 55 | 1008.9 |
| 20260505181554 | 25 | 192 | 0.0 | 12.9 | 0.00 | 0.15 | 0.03 | 55 | 1008.9 |
| 20260505181010 | 25 | 185 | 1.6 | 9.7 | 0.00 | 0.15 | 0.03 | 54 | 1008.9 |
| 20260505180521 | 25 | 271 | 1.6 | 11.3 | 0.00 | 0.15 | 0.03 | 54 | 1008.9 |
| 20260505180033 | 25 | 220 | 0.0 | 8.0 | 0.00 | 0.15 | 0.03 | 54 | 1009.0 |
| 20260505175545 | 25 | 51 | 0.0 | 6.4 | 0.00 | 0.15 | 0.03 | 53 | 1008.9 |
| 20260505175004 | 25 | 252 | 0.0 | 3.2 | 0.00 | 0.15 | 0.03 | 54 | 1008.9 |
| 20260505174516 | 25 | 213 | 0.0 | 3.2 | 0.00 | 0.15 | 0.03 | 54 | 1009.0 |
| 20260505174032 | 25 | 214 | 0.0 | 8.0 | 0.00 | 0.15 | 0.03 | 54 | 1009.0 |
| 20260505173543 | 25 | 10 | 1.6 | 9.7 | 0.00 | 0.15 | 0.03 | 54 | 1009.1 |
| 20260505173059 | 25 | 73 | 0.0 | 8.0 | 0.00 | 0.15 | 0.03 | 55 | 1009.2 |
| 20260505172509 | 25 | 192 | 1.6 | 8.0 | 0.00 | 0.15 | 0.03 | 54 | 1009.2 |
| 20260505172030 | 25 | 51 | 0.0 | 11.3 | 0.00 | 0.15 | 0.03 | 55 | 1009.3 |
| 20260505171542 | 25 | 105 | 0.0 | 6.4 | 0.00 | 0.15 | 0.03 | 54 | 1009.2 |
| 20260505171058 | 25 | 210 | 0.0 | 4.8 | 0.00 | 0.15 | 0.03 | 55 | 1009.2 |
| 20260505170509 | 25 | 27 | 0.0 | 4.8 | 0.00 | 0.15 | 0.03 | 53 | 1009.2 |
| 20260505170028 | 25 | 31 | 0.0 | 3.2 | 0.00 | 0.15 | 0.03 | 55 | 1009.3 |
| 20260505165533 | 25 | 349 | 0.0 | 9.7 | 0.00 | 0.15 | 0.03 | 54 | 1009.2 |
| 20260505165047 | 25 | 295 | 1.6 | 9.7 | 0.00 | 0.15 | 0.03 | 54 | 1009.3 |
| 20260505164603 | 25 | 57 | 0.0 | 6.4 | 0.00 | 0.15 | 0.03 | 56 | 1009.3 |
| 20260505164508 | 25 | 51 | 0.0 | 6.4 | 0.00 | 0.15 | 0.03 | 56 | 1009.4 |
| 20260505164016 | 25 | 291 | 0.0 | 8.0 | 0.00 | 0.15 | 0.03 | 55 | 1009.6 |
| 20260505163534 | 25 | 74 | 0.0 | 8.0 | 0.00 | 0.15 | 0.03 | 54 | 1009.6 |
| 20260505163051 | 25 | 315 | 0.0 | 4.8 | 0.00 | 0.15 | 0.03 | 55 | 1009.7 |
| 20260505162604 | 24 | 252 | 0.0 | 4.8 | 0.00 | 0.15 | 0.03 | 55 | 1009.8 |
| 20260505162501 | 24 | 330 | 0.0 | 6.4 | 0.00 | 0.15 | 0.03 | 56 | 1009.8 |